Location: Unspecified
(47.9110°N, 14.3980°E)
Time: 21:55:39
(UTC+00:00)

USA 234 - Pass Details

Date: 06 August 2020
Orbit: 1100 x 1108 km, 123.0° (Epoch: 17 September)

Event Time Altitude Azimuth Distance (km) Brightness Sun altitude
Exits shadow 21:47:43 24° 214° (SSW) 2,121 4.4 -23.2°
Maximum altitude 21:49:12 26° 234° (SW) 2,034 4.5 -23.3°
Drops below altitude 10° 21:54:29 10° 288° (WNW) 2,965 6.0 -23.6°
Sets 21:57:29 0° 301° (WNW) 3,928 6.9 -23.8°
